QXE2177 KSEA-KRNO

Flight info

Callsign QXE2177
Flight time N/A
Altitude 35000
Route SUMMA2 LKV HARTT KLUBS1
Aircraft E75L/M-SDE3GILORVW/S

Departure

Time N/A
Airport Seattle–Tacoma International Airport (KSEA)

Arrival

Time 2026-04-30 20:19
Airport Reno Tahoe International Airport (KRNO)
Time Latitude Longitude Altitude Speed Heading
2026-04-30 19:41 43.61636 -120.89018 35151 ft 470 kts 168°
2026-04-30 19:41 43.58463 -120.87917 35151 ft 470 kts 168°
2026-04-30 19:41 43.52127 -120.85720 35151 ft 470 kts 168°
2026-04-30 19:42 43.45785 -120.83527 35149 ft 470 kts 168°
2026-04-30 19:42 43.39441 -120.81335 35148 ft 470 kts 168°
2026-04-30 19:43 43.33092 -120.79148 35143 ft 470 kts 169°
2026-04-30 19:44 43.23578 -120.75880 35145 ft 470 kts 169°
2026-04-30 19:44 43.17229 -120.73705 35147 ft 470 kts 169°
2026-04-30 19:45 43.10884 -120.71536 35146 ft 470 kts 169°
2026-04-30 19:45 43.04533 -120.69369 35146 ft 470 kts 169°
2026-04-30 19:46 42.98186 -120.67209 35148 ft 470 kts 169°
2026-04-30 19:46 42.91861 -120.65058 35148 ft 470 kts 169°
2026-04-30 19:47 42.85506 -120.62904 35149 ft 470 kts 169°
2026-04-30 19:47 42.79165 -120.60759 35149 ft 470 kts 169°
2026-04-30 19:48 42.72847 -120.58628 35149 ft 470 kts 169°
2026-04-30 19:48 42.66451 -120.56470 35153 ft 470 kts 169°
2026-04-30 19:49 42.60097 -120.54336 35149 ft 470 kts 169°
2026-04-30 19:49 42.50613 -120.51152 35149 ft 470 kts 169°
2026-04-30 19:50 42.44246 -120.49128 35168 ft 469 kts 171°
2026-04-30 19:50 42.37866 -120.47253 35171 ft 469 kts 171°
2026-04-30 19:51 42.31489 -120.45337 35173 ft 469 kts 171°
2026-04-30 19:51 42.25111 -120.43413 35184 ft 470 kts 171°
2026-04-30 19:52 42.18732 -120.41494 35188 ft 470 kts 171°
2026-04-30 19:52 42.12346 -120.39577 35186 ft 470 kts 171°
2026-04-30 19:53 42.05973 -120.37668 35181 ft 470 kts 171°
2026-04-30 19:53 41.99594 -120.35762 35172 ft 469 kts 171°
2026-04-30 19:54 41.93217 -120.33859 35160 ft 469 kts 171°
2026-04-30 19:54 41.86843 -120.31962 35142 ft 469 kts 171°
2026-04-30 19:55 41.80472 -120.30069 35126 ft 469 kts 171°
2026-04-30 19:55 41.74101 -120.28180 35124 ft 469 kts 171°
2026-04-30 19:56 41.67720 -120.26293 35127 ft 469 kts 171°
2026-04-30 19:56 41.61357 -120.24411 35137 ft 469 kts 171°
2026-04-30 19:57 41.54984 -120.22534 35128 ft 469 kts 172°
2026-04-30 19:57 41.48606 -120.20660 35129 ft 469 kts 172°
2026-04-30 19:58 41.42235 -120.18789 35125 ft 469 kts 172°
2026-04-30 19:58 41.35865 -120.16923 35118 ft 469 kts 172°
2026-04-30 19:59 41.29503 -120.15063 35099 ft 469 kts 172°
2026-04-30 20:00 41.21020 -120.12589 35115 ft 468 kts 172°
2026-04-30 20:00 41.14663 -120.10741 35104 ft 468 kts 172°
2026-04-30 20:01 41.04228 -120.07699 34350 ft 446 kts 172°
2026-04-30 20:01 41.02184 -120.07106 33818 ft 446 kts 172°
2026-04-30 20:01 40.99177 -120.06233 33293 ft 438 kts 172°
2026-04-30 20:02 40.93281 -120.04537 32095 ft 429 kts 171°
2026-04-30 20:02 40.90375 -120.03704 31543 ft 424 kts 171°
2026-04-30 20:03 40.84599 -120.02055 30440 ft 429 kts 171°
2026-04-30 20:03 40.81669 -120.01080 29440 ft 442 kts 168°
2026-04-30 20:03 40.78673 -120.00145 28699 ft 436 kts 169°
2026-04-30 20:03 40.75723 -119.99255 28091 ft 437 kts 169°
2026-04-30 20:04 40.72749 -119.98346 27565 ft 441 kts 169°
2026-04-30 20:04 40.69742 -119.97413 26957 ft 446 kts 169°
2026-04-30 20:04 40.66720 -119.96466 26347 ft 446 kts 168°
2026-04-30 20:05 40.60705 -119.94688 25116 ft 447 kts 174°
2026-04-30 20:05 40.57594 -119.94192 24563 ft 441 kts 175°
2026-04-30 20:05 40.51618 -119.93027 23388 ft 434 kts 170°
2026-04-30 20:06 40.48717 -119.92050 22878 ft 428 kts 165°
2026-04-30 20:06 40.45907 -119.90772 22291 ft 427 kts 160°
2026-04-30 20:06 40.43158 -119.89345 21719 ft 424 kts 159°
2026-04-30 20:06 40.40388 -119.88098 21186 ft 417 kts 165°
2026-04-30 20:07 40.37580 -119.87160 20592 ft 414 kts 167°
2026-04-30 20:07 40.34794 -119.86319 20063 ft 409 kts 168°
2026-04-30 20:07 40.29298 -119.84661 18967 ft 402 kts 167°
2026-04-30 20:08 40.26591 -119.83823 18457 ft 398 kts 167°
2026-04-30 20:08 40.23900 -119.82980 17836 ft 394 kts 166°
2026-04-30 20:08 40.21250 -119.82131 17228 ft 388 kts 166°
2026-04-30 20:08 40.18651 -119.81299 16733 ft 382 kts 166°
2026-04-30 20:09 40.16078 -119.80479 16251 ft 379 kts 166°
2026-04-30 20:09 40.13521 -119.79667 15712 ft 377 kts 166°
2026-04-30 20:09 40.08526 -119.78087 14746 ft 361 kts 166°
2026-04-30 20:10 40.03711 -119.76716 13790 ft 346 kts 174°
2026-04-30 20:10 40.01363 -119.76602 13345 ft 330 kts 181°
2026-04-30 20:10 39.99117 -119.76689 12919 ft 316 kts 181°
2026-04-30 20:11 39.96471 -119.76775 12431 ft 302 kts 181°
2026-04-30 20:11 39.94436 -119.76807 12082 ft 291 kts 180°
2026-04-30 20:11 39.92455 -119.76819 11806 ft 279 kts 180°
2026-04-30 20:12 39.88601 -119.76823 11295 ft 277 kts 179°
2026-04-30 20:12 39.86670 -119.76828 11011 ft 277 kts 179°
2026-04-30 20:12 39.84757 -119.76831 10815 ft 273 kts 179°
2026-04-30 20:13 39.82849 -119.76837 10503 ft 274 kts 179°
2026-04-30 20:13 39.80988 -119.76843 10203 ft 273 kts 179°
2026-04-30 20:13 39.79430 -119.76849 9936 ft 270 kts 178°
2026-04-30 20:13 39.77588 -119.76852 9591 ft 260 kts 178°
2026-04-30 20:14 39.75814 -119.76862 9260 ft 249 kts 179°
2026-04-30 20:14 39.74107 -119.76871 8946 ft 243 kts 178°
2026-04-30 20:14 39.72427 -119.76875 8643 ft 240 kts 178°
2026-04-30 20:14 39.70764 -119.76873 8337 ft 240 kts 178°
2026-04-30 20:15 39.69127 -119.76875 7996 ft 230 kts 178°
2026-04-30 20:15 39.67560 -119.76884 7713 ft 220 kts 178°
2026-04-30 20:15 39.66051 -119.76888 7447 ft 215 kts 178°
2026-04-30 20:15 39.64551 -119.76890 7142 ft 216 kts 178°
2026-04-30 20:16 39.63075 -119.76893 6853 ft 203 kts 178°
2026-04-30 20:16 39.61723 -119.76900 6555 ft 188 kts 177°
2026-04-30 20:16 39.60467 -119.76902 6279 ft 174 kts 178°
2026-04-30 20:16 39.59298 -119.76913 6005 ft 163 kts 179°
2026-04-30 20:17 39.58175 -119.76915 5771 ft 160 kts 179°
2026-04-30 20:17 39.57057 -119.76912 5580 ft 162 kts 180°
2026-04-30 20:17 39.55923 -119.76914 5352 ft 164 kts 179°
2026-04-30 20:17 39.54775 -119.76923 5080 ft 166 kts 180°
2026-04-30 20:18 39.53627 -119.76920 4891 ft 164 kts 178°
2026-04-30 20:18 39.52502 -119.76926 4742 ft 160 kts 178°
2026-04-30 20:18 39.51396 -119.76930 4588 ft 157 kts 178°
2026-04-30 20:18 39.50340 -119.76921 4506 ft 141 kts 179°
2026-04-30 20:19 39.49512 -119.76926 4507 ft 99 kts 179°
2026-04-30 20:19 39.49037 -119.76904 4506 ft 46 kts 176°
2026-04-30 20:19 39.48913 -119.76977 4506 ft 10 kts 249°
2026-04-30 20:19 39.48913 -119.77042 4509 ft 9 kts 275°
2026-04-30 20:20 39.48931 -119.77123 4506 ft 9 kts 314°
2026-04-30 20:20 39.49005 -119.77150 4506 ft 13 kts 350°
2026-04-30 20:20 39.49103 -119.77149 4509 ft 15 kts
2026-04-30 20:20 39.49210 -119.77145 4506 ft 16 kts
2026-04-30 20:21 39.49324 -119.77148 4507 ft 17 kts 358°
2026-04-30 20:21 39.49447 -119.77150 4507 ft 18 kts 359°
2026-04-30 20:21 39.49575 -119.77151 4506 ft 19 kts
2026-04-30 20:21 39.49711 -119.77151 4507 ft 20 kts
2026-04-30 20:22 39.49849 -119.77152 4508 ft 20 kts 360°
2026-04-30 20:22 39.49989 -119.77151 4508 ft 20 kts 359°
2026-04-30 20:22 39.50131 -119.77151 4506 ft 21 kts
2026-04-30 20:22 39.50276 -119.77150 4509 ft 21 kts
2026-04-30 20:23 39.50425 -119.77149 4507 ft 22 kts
2026-04-30 20:23 39.50575 -119.77150 4509 ft 21 kts
2026-04-30 20:23 39.50718 -119.77144 4507 ft 20 kts
2026-04-30 20:23 39.50798 -119.77167 4509 ft 4 kts 303°
2026-04-30 20:24 39.50801 -119.77192 4509 ft 4 kts 277°
2026-04-30 20:24 39.50805 -119.77240 4508 ft 6 kts 270°
2026-04-30 20:24 39.50804 -119.77300 4508 ft 8 kts 269°
2026-04-30 20:24 39.50802 -119.77368 4508 ft 4 kts 253°
2026-04-30 20:25 39.50749 -119.77393 4510 ft 4 kts 181°
2026-04-30 20:25 39.50740 -119.77393 4509 ft 0 kts 181°
2026-04-30 20:26 39.50738 -119.77393 4509 ft 0 kts 181°